Вернуться в каталог

STARLINK-31504

АктивенСвязьVLEO
NORAD 59303·PAYLOAD·🇺🇸 United States

Запущен Mar 24, 2024 с Cape Canaveral Space Force Station

Loading…

Ближайшие Пролёты (ближайшие 24 часа)

TLE

СвежийSource: CelesTrak SupGP

Эпоха: Sep 15, 2026, 02:02 UTC

1 59303C 24056H   26258.08520833 -.00020980  00000+0 -76000-3 0  2583
2 59303  42.9994 241.2158 0001215 264.9395 273.5029 15.27583873    17

Отслеживайте STARLINK-31504 в реальном времени с AllMySat

Download on the App Store